Weather History for KITH - February, 2013

Change the Weather History Date:

Monday, February 18, 2013

  Actual Average Record
Temperature  
Mean Temperature 20 °F -  
Max Temperature 29 °F 31 °F 59 °F (1997)
Min Temperature 10 °F 13 °F -23 °F (1979)
Degree Days  
Heating Degree Days 46    
Moisture  
Dew Point 7 °F    
Average Humidity 60    
Maximum Humidity 85    
Minimum Humidity 39    
Precipitation  
Precipitation 0.00 in - - ()
Sea Level Pressure  
Sea Level Pressure 30.20 in    
Wind  
Wind Speed 13 mph (West)    
Max Wind Speed 20 mph    
Max Gust Speed 29 mph    
Visibility 9 miles    
Events Snow    
Averages and records for this station are not official NWS values.
T = Trace of Precipitation, MM = Missing Value Source: NWS Daily Summary

Daily Weather History Graph

Daily Weather History Graph

Search for Another Location

Airport or City:

Trip Planner

Search our weather history database for the weather conditions in past years. The results will help you decide how hot, cold, wet, or windy it might be!

Date:

Astronomy

Feb. 18, 2013 Rise Set
Actual Time 6:57 AM EST 5:42 PM EST
Civil Twilight 6:29 AM EST 6:10 PM EST
Nautical Twilight 5:56 AM EST 6:43 PM EST
Astronomical Twilight 5:23 AM EST 7:16 PM EST
Moon 11:22 AM EST (2/18) 1:39 AM EST (2/18)
Length of Visible Light 11h 41m
Length of Day
10h 44m
First Quarter, 58% of the Moon is Illuminated
Feb 18
First Quarter
Feb 25
Full
Mar 4
Last Quarter
Mar 11
New
Mar 19
First Quarter

Hourly Weather History & Observations

Time (EST) Temp. Windchill Dew Point Humidity Pressure Visibility Wind Dir Wind Speed Gust Speed Precip Events Conditions
12:56 AM 12.0 °F -6.0 °F 5.0 °F 73% 30.16 in 10.0 mi WNW 19.6 mph 26.5 mph 0.00 in   Overcast
1:56 AM 11.1 °F -7.2 °F 4.1 °F 73% 30.17 in 10.0 mi NW 19.6 mph 28.8 mph 0.00 in Snow Light Snow
2:56 AM 11.1 °F -6.7 °F 3.0 °F 70% 30.19 in 10.0 mi NW 18.4 mph 26.5 mph 0.00 in   Overcast
3:56 AM 11.1 °F -5.1 °F 5.0 °F 76% 30.22 in 5.0 mi NW 15.0 mph - 0.00 in Snow Light Snow
4:56 AM 11.1 °F -3.9 °F 5.0 °F 76% 30.25 in 10.0 mi NW 12.7 mph - 0.00 in Snow Light Snow
5:39 AM 10.4 °F -6.0 °F 5.0 °F 79% 30.19 in 5.0 mi WNW 15.0 mph - 0.00 in Snow Light Snow
6:12 AM 10.4 °F -5.4 °F 6.8 °F 85% 30.20 in 3.0 mi NW 13.8 mph - 0.00 in Snow Light Snow
6:56 AM 12.0 °F -3.4 °F 5.0 °F 73% 30.28 in 4.0 mi WNW 13.8 mph - 0.00 in Snow Light Snow
7:56 AM 12.0 °F -1.3 °F 5.0 °F 73% 30.29 in 5.0 mi WNW 10.4 mph - 0.00 in Snow Light Snow
8:56 AM 14.0 °F 1.2 °F 7.2 °F 74% 30.30 in 7.0 mi WNW 10.4 mph - 0.00 in   Mostly Cloudy
9:56 AM 16.2 °F 3.2 °F 7.2 °F 68% 30.30 in 7.0 mi NW 11.5 mph - 0.00 in   Mostly Cloudy
10:56 AM 18.1 °F 7.1 °F 9.1 °F 68% 30.29 in 10.0 mi WNW 9.2 mph - 0.00 in Snow Light Snow Showers
11:56 AM 21.0 °F 11.4 °F 9.1 °F 60% 30.29 in 10.0 mi West 8.1 mph - 0.00 in   Scattered Clouds
12:56 PM 22.1 °F 15.9 °F 8.1 °F 55% 30.26 in 10.0 mi Variable 4.6 mph - N/A   Partly Cloudy
1:56 PM 25.2 °F 19.5 °F 7.2 °F 46% 30.23 in 10.0 mi WSW 4.6 mph - N/A   Clear
2:56 PM 27.1 °F 21.8 °F 7.2 °F 43% 30.21 in 10.0 mi SW 4.6 mph - N/A   Clear
3:56 PM 28.0 °F 24.2 °F 6.1 °F 39% 30.18 in 10.0 mi Variable 3.5 mph - N/A   Clear
4:56 PM 29.1 °F 22.1 °F 8.1 °F 41% 30.17 in 10.0 mi South 6.9 mph - N/A   Partly Cloudy
6:56 PM 27.1 °F 21.8 °F 8.1 °F 45% 30.15 in 10.0 mi ESE 4.6 mph - N/A   Clear
7:56 PM 28.0 °F 19.3 °F 8.1 °F 43% 30.12 in 10.0 mi SE 9.2 mph - N/A   Scattered Clouds
8:56 PM 29.1 °F 20.0 °F 9.1 °F 43% 30.09 in 10.0 mi SSE 10.4 mph - N/A   Scattered Clouds
9:56 PM 29.1 °F 20.0 °F 8.1 °F 41% 30.07 in 10.0 mi SE 10.4 mph - N/A   Partly Cloudy
10:56 PM 29.1 °F 18.9 °F 9.1 °F 43% 30.05 in 10.0 mi South 12.7 mph - N/A   Clear
11:56 PM 29.1 °F 20.0 °F 10.0 °F 45% 30.05 in 10.0 mi SSE 10.4 mph - N/A   Clear